�v������,1F���[���G�A�R��(kWh),1F���͔�(kWh),2F�n�[�g���ƕ�(kWh),2F������(kWh),2F���̑�(kWh),2F�S�M������i�������j(kWh),2F�S�M������i�n�[�g�j(kWh),2F�S�M������i�������k�j(kWh),2F�S�M������i��������j(kWh),�T�[�o���[��(kWh),3F���q���b�J�[(kWh),3F�X�^�W�I(kWh),3FBEMS��(kWh),3F���̑�(kWh),3F�S�M������i���c���j(kWh),3F�S�M������i�H���j(kWh)
2022-08-01 00:00:00,0,0,0.2,0,0.1,0.02,0.05,0.05,0.05,0.1,0,0,0,0.10000000000000142,0.08,0.03
2022-08-01 00:10:00,0,0,0.1,0,0,0.02,0.06,0.06,0.05,0,0,0,0,0,0.07,0.04
2022-08-01 00:20:00,0,0,0.2,0,0,0.02,0.05,0.05,0.06,0.1,0,0,0,0,0.08,0.04
2022-08-01 00:30:00,0,0,0.2,0,0,0.02,0.05,0.05,0.05,0.1,0,0,0,0,0.07,0.03
2022-08-01 00:40:00,0,0,0.2,0,0,0.02,0.05,0.06,0.06,0,0,0,0,0,0.08,0.04
2022-08-01 00:50:00,0,0,0.1,0,0,0.02,0.06,0.05,0.05,0.1,0,0,0,0,0.07,0.04
2022-08-01 01:00:00,0,0,0.1,0,0,0.02,0.05,0.06,0.06,0,0,0,0,0,0.08,0.04
2022-08-01 01:10:00,0,0,0,0,0,0.01,0.05,0.05,0.05,0.1,0,0,0,0,0.07,0.03
2022-08-01 01:20:00,0,0,0,0,0,0.02,0.05,0.05,0.05,0.1,0,0,0,0,0.08,0.04
2022-08-01 01:30:00,0,0,0,0,0,0.02,0.06,0.06,0.06,0.1,0,0,0,0,0.07,0.04
2022-08-01 01:40:00,0,0,0,0,0,0.02,0.05,0.05,0.05,0.1,0,0,0,0,0.08,0.04
2022-08-01 01:50:00,0,0,0,0,0,0.02,0.05,0.06,0.06,0,0,0,0,0,0.07,0.03
2022-08-01 02:00:00,0,0,0,0,0,0.02,0.05,0.05,0.05,0.1,0,0,0,0,0.08,0.04
2022-08-01 02:10:00,0,0,0,0,0.1,0.02,0.06,0.05,0.06,0.1,0,0,0,0.10000000000000142,0.07,0.04
2022-08-01 02:20:00,0,0,0,0,0,0.02,0.05,0.06,0.05,0,0,0,0,0,0.08,0.04
2022-08-01 02:30:00,0,0,0,0,0,0.02,0.05,0.05,0.05,0.1,0,0,0,0,0.07,0.03
2022-08-01 02:40:00,0,0,0,0,0,0.01,0.05,0.06,0.06,0.1,0,0,0,0,0.08,0.04
2022-08-01 02:50:00,0,0,0,0,0,0.02,0.05,0.05,0.05,0.1,0,0,0,0,0.07,0.04
2022-08-01 03:00:00,0,0,0,0,0,0.02,0.06,0.05,0.06,0.1,0,0,0,0,0.08,0.04
2022-08-01 03:10:00,0,0,0,0,0,0.02,0.05,0.06,0.05,0.1,0,0,0,0,0.07,0.03
2022-08-01 03:20:00,0,0,0,0,0,0.02,0.05,0.05,0.05,0.1,0,0,0,0,0.08,0.04
2022-08-01 03:30:00,0,0,0,0,0,0.02,0.05,0.06,0.06,0.1,0,0,0,0,0.07,0.04
2022-08-01 03:40:00,0,0,0,0,0,0.02,0.06,0.05,0.05,0,0,0,0,0,0.08,0.03
2022-08-01 03:50:00,0,0,0,0,0,0.02,0.05,0.05,0.05,0.1,0,0,0,0,0.07,0.04
2022-08-01 04:00:00,0,0,0,0,0,0.01,0.05,0.05,0.06,0.1,0,0,0,0,0.08,0.04
2022-08-01 04:10:00,0,0,0,0,0,0.02,0.05,0.06,0.05,0.1,0,0,0,0,0.07,0.03
2022-08-01 04:20:00,0,0,0,0,0,0.02,0.05,0.05,0.05,0.1,0,0,0,0,0.07,0.04
2022-08-01 04:30:00,0,0,0,0,0,0.02,0.06,0.05,0.06,0,0,0,0,0,0.08,0.04
2022-08-01 04:40:00,0,0,0,0,0,0.02,0.05,0.06,0.05,0.1,0,0,0,0,0.07,0.04
2022-08-01 04:50:00,0,0,0,0,0,0.02,0.05,0.05,0.05,0.1,0,0,0,0,0.08,0.03
2022-08-01 05:00:00,0,0,0,0,0.1,0.02,0.05,0.05,0.06,0.1,0,0,0,0.10000000000000142,0.07,0.04
2022-08-01 05:10:00,0,0,0,0,0,0.01,0.05,0.06,0.05,0.1,0,0,0,0,0.07,0.04
2022-08-01 05:20:00,0,0,0,0,0,0.02,0.05,0.05,0.05,0.1,0,0,0,0,0.08,0.03
2022-08-01 05:30:00,0,0,0,0,0,0.02,0.06,0.05,0.06,0,0,0,0,0,0.07,0.04
2022-08-01 05:40:00,0,0,0,0,0,0.02,0.05,0.06,0.05,0.1,0,0,0,0,0.08,0.04
2022-08-01 05:50:00,0,0,0,0,0,0.02,0.05,0.05,0.06,0.1,0,0,0,0,0.07,0.03
2022-08-01 06:00:00,0,0,0,0,0,0.02,0.05,0.06,0.05,0.1,0,0,0,0,0.08,0.04
2022-08-01 06:10:00,0,0,0,0,0,0.02,0.05,0.05,0.05,0.1,0,0,0,0,0.07,0.04
2022-08-01 06:20:00,0,0,0,0,0,0.02,0.06,0.05,0.06,0.1,0,0,0,0,0.08,0.04
2022-08-01 06:30:00,0,0,0,0,0.81,0.02,0.05,0.06,0.05,0.1,0,0,0,0.7999999999999972,0.07,0.03
2022-08-01 06:40:00,0,0,0,0,1.4200000000000002,0.01,0.05,0.05,0.05,0.1,0,0,0,1.3999999999999986,0.08,0.04
2022-08-01 06:50:00,0,0,0.1,0,1.84,0.02,0.05,0.05,0.06,0.1,0,0,0,1.7999999999999972,0.07,0.04
2022-08-01 07:00:00,0,0,0.4,0,2.4400000000000004,0.02,0.02,0.06,0.05,0.1,0,0,0,2.4199999999999946,0.07,0.03
2022-08-01 07:10:00,0,0,0.5,0,2.15,0.02,0.03,0.05,0.05,0,0,0,0,2.1000000000000014,0.08,0.04
2022-08-01 07:20:00,0,0,0.30000000000000004,0,1.84,0.02,0.02,0.05,0.05,0.1,0.1,0,0,1.8100000000000023,0.07,0.04
2022-08-01 07:30:00,0,0,0.30000000000000004,0,2.04,0.02,0.03,0.05,0.05,0.1,0,0,0,2.049999999999997,0.07,0.03
2022-08-01 07:40:00,0,0,0.2,0,1.9500000000000002,0.01,0.02,0.06,0.06,0,0,0,0,1.9699999999999989,0.08,0.04
2022-08-01 07:50:00,0,0,0.30000000000000004,0,1.84,0.02,0.03,0.05,0.05,0.1,0,0,0,1.8599999999999923,0.12,0.04
2022-08-01 08:00:00,0,0,0.2,0,2.04,0.02,0.02,0.05,0.05,0,0,0,0,2.0700000000000074,0.17,0.03
2022-08-01 08:10:00,0,0,0.2,0,1.84,0.02,0.03,0.05,0.06,0,0,0,0,1.8499999999999943,0.12,0.04
2022-08-01 08:20:00,0,0,0.30000000000000004,0,2.05,0.02,0.02,0.06,0.05,0.1,0,0,0,2.039999999999999,0.12,0.04
2022-08-01 08:30:00,0,0,0.2,0,1.84,0.02,0.03,0.05,0.05,0,0,0,0,1.8399999999999963,0.12,0.03
2022-08-01 08:40:00,0,0,0.30000000000000004,0,2.14,0.01,0.02,0.05,0.05,0.1,0,0,0,2.1499999999999986,0.12,0.04
2022-08-01 08:50:00,0,0,0.30000000000000004,0.1,1.7500000000000002,0.02,0.03,0.05,0.06,0.1,0,0,0,1.740000000000009,0.12,0.04
2022-08-01 09:00:00,0,0,0.2,0,1.54,0.02,0.02,0.05,0.05,0,0,0,0,1.5300000000000011,0.11,0.04
2022-08-01 09:10:00,0,0,0.30000000000000004,0,1.6400000000000001,0.02,0.03,0.06,0.08,0.1,0,0,0,1.6000000000000014,0.07,0.03
2022-08-01 09:20:00,0,0,0.2,0,1.6400000000000001,0.02,0.02,0.05,0.09,0,0,0,0,1.6000000000000014,0.07,0.04
2022-08-01 09:30:00,0,0,0.2,0,1.55,0.02,0.03,0.05,0.09,0.1,0,0,0,1.5,0.08,0.03
2022-08-01 09:40:00,0,0,0.1,0,1.6400000000000001,0.01,0.02,0.05,0.09,0,0,0,0,1.6000000000000014,0.07,0.04
2022-08-01 09:50:00,0,0,0.2,0,1.6400000000000001,0.02,0.03,0.05,0.09,0.1,0.30000000000000004,0,0,1.6000000000000014,0.07,0.04
2022-08-01 10:00:00,0,0,0.2,0.2,1.55,0.02,0.02,0.06,0.09,0.1,0.2,0,0,1.5,0.08,0.03
2022-08-01 10:10:00,0,0,0.1,0.30000000000000004,1.54,0.02,0.03,0.05,0.1,0.1,0.1,0,0,1.5,0.07,0.04
2022-08-01 10:20:00,0,0,0.30000000000000004,0.2,1.6400000000000001,0.02,0.02,0.05,0.08,0,0,0,0,1.6000000000000014,0.07,0.04
2022-08-01 10:30:00,0,0,0.1,0.30000000000000004,1.55,0.01,0.03,0.05,0.09,0.1,0,0,0,1.5,0.08,0.03
2022-08-01 10:40:00,0,0,0.1,0.30000000000000004,1.54,0.02,0.02,0.06,0.09,0,0,0,0,1.5,0.07,0.04
2022-08-01 10:50:00,0,0,0.2,0.1,1.54,0.02,0.03,0.05,0.1,0.1,0,0,0,1.5,0.08,0.04
2022-08-01 11:00:00,0,0,0.1,0,1.55,0.02,0.02,0.05,0.09,0,0,0,0,1.5,0.07,0.03
2022-08-01 11:10:00,0,0,0.1,0,1.54,0.02,0.03,0.06,0.09,0.1,0,0,0,1.5,0.07,0.04
2022-08-01 11:20:00,0,0,0.1,0,1.54,0.02,0.02,0.05,0.09,0,0,0,0,1.5,0.08,0.04
2022-08-01 11:30:00,0,0,0.1,0,1.55,0.02,0.03,0.05,0.09,0.1,0,0,0,1.509999999999998,0.07,0.03
2022-08-01 11:40:00,0,0,0.1,0,1.6400000000000001,0.01,0.02,0.06,0.09,0,0,0,0,1.6099999999999994,0.08,0.04
2022-08-01 11:50:00,0.14,0.2,0.1,0,1.54,0.02,0.03,0.05,0.09,0.1,0,0,0,1.5,0.07,0.04
2022-08-01 12:00:00,0.15,0.2,0.1,0,1.6400000000000001,0.02,0.02,0.05,0.1,0,0,0,0,1.6300000000000026,0.08,0.03
2022-08-01 12:10:00,0.13,0.2,0.1,0,1.4500000000000002,0.02,0.03,0.06,0.09,0.1,0,0,0,1.4199999999999946,0.07,0.04
2022-08-01 12:20:00,0.11,0.2,0.1,0,1.54,0.02,0.02,0.05,0.09,0,0,0,0,1.5300000000000011,0.08,0.04
2022-08-01 12:30:00,0.11,0,0.1,0,1.4500000000000002,0.02,0.03,0.05,0.1,0.1,0,0,0,1.4200000000000017,0.07,0.04
2022-08-01 12:40:00,0.11,0.1,0.1,0,1.6400000000000001,0.02,0.03,0.06,0.09,0.1,0,0,0,1.6300000000000026,0.08,0.03
2022-08-01 12:50:00,0.06,0.1,0.1,0,1.4400000000000002,0.01,0.02,0.05,0.09,0,0,0,0,1.4200000000000017,0.07,0.04
2022-08-01 13:00:00,0,0,0.1,0,1.4400000000000002,0.02,0.03,0.05,0.09,0.1,0,0,0,1.4199999999999946,0.08,0.04
2022-08-01 13:10:00,0,0,0.2,0,1.55,0.02,0.02,0.06,0.09,0,0,0,0,1.519999999999996,0.07,0.03
2022-08-01 13:20:00,0,0,0.1,0,1.6400000000000001,0.02,0.03,0.05,0.09,0.1,0.2,0,0,1.6100000000000065,0.08,0.04
2022-08-01 13:30:00,0,0,0.1,0,1.6400000000000001,0.02,0.02,0.05,0.09,0.1,0,0,0,1.6199999999999974,0.07,0.04
2022-08-01 13:40:00,0,0,0.1,0,1.55,0.02,0.03,0.05,0.09,0,0,0,0,1.5200000000000031,0.07,0.03
2022-08-01 13:50:00,0,0,0.1,0,1.54,0.01,0.02,0.06,0.09,0.1,0,0,0,1.5200000000000031,0.08,0.04
2022-08-01 14:00:00,0,0,0.1,0,1.6400000000000001,0.02,0.03,0.05,0.09,0,0,0,0,1.6099999999999994,0.07,0.03
2022-08-01 14:10:00,0,0,0.1,0,1.34,0.02,0.02,0.05,0.1,0.1,0,0,0,1.3200000000000003,0.08,0.04
2022-08-01 14:20:00,0,0,0.1,0,1.6500000000000001,0.02,0.03,0.05,0.09,0,0,0.04,0,1.6199999999999974,0.07,0.04
2022-08-01 14:30:00,0,0,0,0,1.54,0.02,0.02,0.05,0.08,0.1,0,0.08,0,1.519999999999996,0.07,0.03
2022-08-01 14:40:00,0,0,0.2,0,1.6400000000000001,0.01,0.03,0.06,0.09,0.1,0,0.08,0,1.6200000000000045,0.07,0.05
2022-08-01 14:50:00,0.03,0,0.1,0.1,1.6500000000000001,0.02,0.02,0.05,0.1,0,0,0.08,0,1.6099999999999994,0.08,0.04
2022-08-01 15:00:00,0.16,0,0,0.30000000000000004,1.54,0.02,0.02,0.05,0.09,0.1,0,0.08,0,1.5200000000000031,0.07,0.04
2022-08-01 15:10:00,0.08,0,0.2,0.30000000000000004,1.54,0.02,0.03,0.05,0.09,0,0,0.07,0,1.5200000000000031,0.07,0.05
2022-08-01 15:20:00,0,0,0.1,0.30000000000000004,1.7400000000000002,0.02,0.02,0.06,0.08,0.1,0,0.07,0,1.7199999999999989,0.08,0.04
2022-08-01 15:30:00,0,0.2,0.1,0.30000000000000004,1.55,0.02,0.03,0.05,0.1,0.1,0,0.06,0,1.5100000000000051,0.07,0.05
2022-08-01 15:40:00,0,0.30000000000000004,0.1,0.2,1.6400000000000001,0.01,0.02,0.05,0.09,0,0,0.07,0,1.6199999999999974,0.08,0.04
2022-08-01 15:50:00,0,0.30000000000000004,0.1,0.30000000000000004,1.54,0.02,0.03,0.05,0.09,0.1,0,0.07,0,1.519999999999996,0.07,0.04
2022-08-01 16:00:00,0,0.2,0.1,0.1,1.55,0.02,0.02,0.06,0.08,0,0,0.05,0,1.5200000000000031,0.07,0.05
2022-08-01 16:10:00,0,0.1,0,0.1,1.54,0.02,0.03,0.05,0.1,0.1,0,0.06,0,1.5200000000000031,0.07,0.04
2022-08-01 16:20:00,0,0.2,0.1,0,1.6400000000000001,0.02,0.02,0.05,0.09,0.1,0,0.06,0,1.6099999999999994,0.08,0.05
2022-08-01 16:30:00,0,0,0.2,0.1,1.55,0.02,0.03,0.05,0.09,0,0,0.05,0,1.5200000000000031,0.07,0.04
2022-08-01 16:40:00,0,0,0,0.1,1.6400000000000001,0.01,0.02,0.06,0.09,0.1,0,0.05,0,1.6199999999999974,0.08,0.04
2022-08-01 16:50:00,0,0,0.2,0.1,1.4400000000000002,0.02,0.03,0.05,0.09,0,0,0.05,0,1.4199999999999946,0.07,0.05
2022-08-01 17:00:00,0,0,0.1,0,1.55,0.02,0.02,0.05,0.09,0.1,0,0.04,0,1.5200000000000031,0.08,0.04
2022-08-01 17:10:00,0,0.1,0.1,0.2,1.6400000000000001,0.02,0.03,0.06,0.09,0,0,0.01,0,1.6099999999999994,0.07,0.05
2022-08-01 17:20:00,0,0.1,0,0,1.54,0.02,0.02,0.05,0.09,0.1,0,0,0,1.5200000000000031,0.07,0.04
2022-08-01 17:30:00,0,0.2,0.1,0.1,1.6500000000000001,0.02,0.03,0.05,0.09,0,0,0,0,1.6200000000000045,0.08,0.05
2022-08-01 17:40:00,0,0.2,0.1,0.1,1.54,0.02,0.02,0.06,0.1,0.1,0,0,0,1.509999999999998,0.08,0.03
2022-08-01 17:50:00,0,0.2,0,0.1,1.7400000000000002,0.01,0.03,0.05,0.09,0,0,0,0,1.7000000000000028,0.07,0.04
2022-08-01 18:00:00,0,0.2,0.1,0.1,1.55,0.02,0.03,0.05,0.09,0.1,0,0,0.06,1.5,0.08,0.04
2022-08-01 18:10:00,0,0,0.2,0,1.4400000000000002,0.02,0.02,0.06,0.09,0,0,0,0,1.3999999999999986,0.07,0.04
2022-08-01 18:20:00,0,0.1,0.2,0.1,1.4400000000000002,0.02,0.03,0.05,0.1,0.1,0,0,0,1.3999999999999986,0.08,0.03
2022-08-01 18:30:00,0,0,0.2,0.1,1.4500000000000002,0.02,0.02,0.06,0.09,0,0,0,0.02,1.3999999999999986,0.07,0.04
2022-08-01 18:40:00,0,0,0.2,0,1.34,0.02,0.03,0.05,0.09,0.1,0.1,0,0,1.2999999999999972,0.08,0.04
2022-08-01 18:50:00,0,0,0.2,0.1,1.4400000000000002,0.02,0.02,0.06,0.1,0,0,0,0,1.3999999999999986,0.08,0.04
2022-08-01 19:00:00,0,0,0.2,0,1.2500000000000002,0.02,0.03,0.05,0.09,0.1,0,0,0,1.2000000000000028,0.07,0.04
2022-08-01 19:10:00,0,0,0.1,0,1.34,0.02,0.03,0.05,0.09,0,0,0,0,1.2999999999999972,0.07,0.03
2022-08-01 19:20:00,0,0,0.2,0,1.2400000000000002,0.01,0.02,0.06,0.09,0.1,0,0,0,1.2000000000000028,0.08,0.04
2022-08-01 19:30:00,0,0,0.2,0,1.2500000000000002,0.02,0.03,0.05,0.09,0,0,0,0,1.2000000000000028,0.07,0.04
2022-08-01 19:40:00,0,0,0.2,0,1.1400000000000001,0.02,0.02,0.05,0.1,0,0,0,0,1.1000000000000014,0.08,0.03
2022-08-01 19:50:00,0,0,0.1,0,1.2400000000000002,0.02,0.03,0.06,0.09,0.1,0,0,0,1.2000000000000028,0.07,0.04
2022-08-01 20:00:00,0,0,0.2,0,1.2500000000000002,0.02,0.02,0.05,0.09,0,0,0,0,1.2000000000000028,0.08,0.04
2022-08-01 20:10:00,0,0,0.1,0,0.54,0.02,0.03,0.05,0.1,0.1,0,0,0,0.5,0.08,0.04
2022-08-01 20:20:00,0,0,0.1,0,1.34,0.02,0.02,0.06,0.09,0,0,0,0,1.2999999999999972,0.07,0.03
2022-08-01 20:30:00,0,0,0,0,1.35,0.02,0.03,0.05,0.09,0,0,0,0,1.2999999999999972,0.08,0.04
2022-08-01 20:40:00,0,0,0,0,1.2400000000000002,0.02,0.03,0.06,0.1,0.1,0,0,0,1.2000000000000028,0.07,0.04
2022-08-01 20:50:00,0,0,0,0,1.04,0.01,0.02,0.05,0.09,0,0,0,0,1,0.08,0.04
2022-08-01 21:00:00,0,0,0,0,1.1500000000000001,0.02,0.03,0.06,0.07,0.1,0,0,0,1.1000000000000014,0.07,0.03
2022-08-01 21:10:00,0,0,0,0,1.1400000000000001,0.02,0.03,0.05,0.06,0,0,0,0,1.1000000000000014,0.08,0.04
2022-08-01 21:20:00,0,0,0,0,1.04,0.02,0.02,0.05,0.05,0.1,0,0,0,1,0.07,0.04
2022-08-01 21:30:00,0,0,0,0,0.9500000000000001,0.02,0.03,0.06,0.05,0,0,0,0,0.8999999999999986,0.08,0.04
2022-08-01 21:40:00,0,0,0,0,1.1400000000000001,0.02,0.02,0.05,0.06,0.1,0,0,0,1.1000000000000014,0.08,0.03
2022-08-01 21:50:00,0,0,0,0,1.04,0.02,0.03,0.05,0.05,0,0,0,0,1,0.07,0.04
2022-08-01 22:00:00,0,0,0,0,0.8400000000000001,0.02,0.03,0.06,0.06,0.1,0,0,0,0.7999999999999972,0.07,0.04
2022-08-01 22:10:00,0,0,0,0,1.05,0.02,0.02,0.05,0.05,0,0,0,0,1,0.08,0.04
2022-08-01 22:20:00,0,0,0,0,0.9400000000000001,0.01,0.03,0.06,0.05,0,0,0,0,0.8999999999999986,0.08,0.03
2022-08-01 22:30:00,0,0,0,0,1.04,0.02,0.02,0.05,0.06,0.1,0,0,0,1,0.07,0.04
2022-08-01 22:40:00,0,0,0,0,1.05,0.02,0.03,0.05,0.05,0,0,0,0,1,0.08,0.04
2022-08-01 22:50:00,0,0,0,0,0.8400000000000001,0.02,0.03,0.06,0.06,0.1,0,0,0,0.7999999999999972,0.07,0.04
2022-08-01 23:00:00,0,0,0,0,0,0.02,0.02,0.05,0.05,0,0,0,0,0,0.08,0.03
2022-08-01 23:10:00,0,0,0,0,0,0.02,0.03,0.06,0.05,0.1,0,0,0,0,0.07,0.04
2022-08-01 23:20:00,0,0,0,0,0,0.02,0.02,0.05,0.06,0,0,0,0,0,0.08,0.04
2022-08-01 23:30:00,0,0,0,0,0,0.02,0.03,0.05,0.05,0.1,0,0,0,0,0.07,0.04
2022-08-01 23:40:00,0,0,0,0,0,0.02,0.03,0.06,0.06,0,0,0,0,0,0.08,0.03
2022-08-01 23:50:00,0,0,0,0,0,0.01,0.02,0.05,0.05,0.1,0,0,0,0,0.07,0.04
2022-08-02 00:00:00,0,0,0,0,0,0.02,0.03,0.05,0.05,0,0,0,0,0,0.08,0.04
2022-08-02 00:10:00,0,0,0,0,0,0.02,0.02,0.06,0.06,0,0,0,0,0,0.07,0.03
2022-08-02 00:20:00,0,0,0,0,0,0.02,0.03,0.05,0.05,0.1,0,0,0,0,0.07,0.04
2022-08-02 00:30:00,0,0,0,0,0,0.02,0.02,0.05,0.05,0,0,0,0,0,0.08,0.04
2022-08-02 00:40:00,0,0,0,0,0,0.02,0.03,0.06,0.06,0.1,0,0,0,0,0.07,0.03
2022-08-02 00:50:00,0,0,0,0,0,0.02,0.03,0.05,0.05,0,0,0,0,0,0.08,0.04
2022-08-02 01:00:00,0,0,0,0,0,0.02,0.02,0.06,0.06,0.1,0,0,0,0,0.07,0.04
2022-08-02 01:10:00,0,0,0,0,0.1,0.01,0.03,0.05,0.05,0,0,0,0,0.10000000000000142,0.08,0.04
2022-08-02 01:20:00,0,0,0,0,0,0.02,0.02,0.05,0.05,0,0,0,0,0,0.07,0.03
2022-08-02 01:30:00,0,0,0,0,0,0.02,0.03,0.06,0.06,0.1,0,0,0,0,0.08,0.04
2022-08-02 01:40:00,0,0,0,0,0,0.02,0.03,0.05,0.05,0,0,0,0,0,0.07,0.04
2022-08-02 01:50:00,0,0,0,0,0,0.02,0.02,0.06,0.06,0.1,0,0,0,0,0.08,0.04
2022-08-02 02:00:00,0,0,0,0,0,0.02,0.03,0.05,0.05,0,0,0,0,0,0.08,0.04
2022-08-02 02:10:00,0,0,0,0,0,0.02,0.02,0.05,0.06,0.1,0,0,0,0,0.07,0.03
2022-08-02 02:20:00,0,0,0,0,0,0.02,0.03,0.06,0.05,0,0,0,0,0,0.08,0.04
2022-08-02 02:30:00,0,0,0,0,0,0.02,0.03,0.05,0.06,0.1,0,0,0,0,0.07,0.04
2022-08-02 02:40:00,0,0,0,0,0,0.02,0.02,0.06,0.05,0,0,0,0,0,0.08,0.04
2022-08-02 02:50:00,0,0,0,0,0,0.01,0.03,0.05,0.05,0,0,0,0,0,0.07,0.03
2022-08-02 03:00:00,0,0,0,0,0,0.02,0.03,0.06,0.06,0.1,0,0,0,0,0.08,0.04
2022-08-02 03:10:00,0,0,0.1,0,0,0.02,0.02,0.05,0.05,0,0,0,0,0,0.07,0.04
2022-08-02 03:20:00,0,0,0,0,0.1,0.02,0.03,0.05,0.06,0.1,0,0,0,0.10000000000000142,0.08,0.03
2022-08-02 03:30:00,0,0,0,0,0,0.02,0.02,0.06,0.05,0,0,0,0,0,0.07,0.04
2022-08-02 03:40:00,0,0,0,0,0,0.02,0.03,0.05,0.05,0,0,0,0,0,0.08,0.04
2022-08-02 03:50:00,0,0,0,0,0,0.02,0.02,0.05,0.06,0.1,0,0,0,0,0.07,0.04
2022-08-02 04:00:00,0,0,0,0,0,0.02,0.03,0.06,0.05,0,0,0,0,0,0.08,0.03
2022-08-02 04:10:00,0,0,0,0,0,0.02,0.03,0.05,0.06,0.1,0,0,0,0,0.07,0.04
2022-08-02 04:20:00,0,0,0,0,0,0.01,0.02,0.06,0.05,0,0,0,0,0,0.08,0.04
2022-08-02 04:30:00,0,0,0,0,0,0.02,0.03,0.05,0.05,0.1,0,0,0,0,0.07,0.04
2022-08-02 04:40:00,0,0,0,0,0,0.02,0.02,0.05,0.06,0,0,0,0,0,0.08,0.03
2022-08-02 04:50:00,0,0,0,0,0,0.02,0.03,0.06,0.05,0,0,0,0,0,0.07,0.04
2022-08-02 05:00:00,0,0,0,0,0,0.02,0.03,0.05,0.06,0.1,0,0,0,0,0.08,0.04
2022-08-02 05:10:00,0,0,0,0,0,0.02,0.02,0.05,0.05,0,0,0,0,0,0.07,0.03
2022-08-02 05:20:00,0,0,0,0,0,0.02,0.03,0.06,0.05,0.1,0,0,0,0,0.08,0.04
2022-08-02 05:30:00,0,0,0,0,0,0.02,0.02,0.05,0.06,0,0,0,0,0,0.07,0.04
2022-08-02 05:40:00,0,0,0,0,0,0.01,0.03,0.06,0.05,0.1,0,0,0,0,0.08,0.04
2022-08-02 05:50:00,0,0,0,0,0,0.02,0.03,0.05,0.06,0,0,0,0,0,0.07,0.03
2022-08-02 06:00:00,0,0,0,0,0,0.02,0.02,0.06,0.05,0,0,0,0,0,0.08,0.04
2022-08-02 06:10:00,0,0,0,0,0.41000000000000003,0.02,0.03,0.05,0.06,0.1,0,0,0,0.3999999999999986,0.07,0.04
2022-08-02 06:20:00,0,0,0,0,0.7100000000000001,0.02,0.02,0.05,0.05,0,0,0,0,0.7000000000000028,0.08,0.04
2022-08-02 06:30:00,0,0,0,0,0.91,0.02,0.03,0.06,0.05,0.1,0,0,0,0.8999999999999986,0.07,0.03
2022-08-02 06:40:00,0,0,0,0,1.1300000000000001,0.02,0.03,0.05,0.06,0,0,0,0,1.1000000000000014,0.08,0.04
2022-08-02 06:50:00,0,0,0,0.1,1.33,0.02,0.02,0.06,0.05,0.1,0,0,0,1.2999999999999972,0.07,0.04
2022-08-02 07:00:00,0,0.1,0.5,0.2,1.7400000000000002,0.02,0.03,0.05,0.05,0,0,0,0,1.730000000000004,0.08,0.05
2022-08-02 07:10:00,0,0,0.5,0.2,1.54,0.02,0.02,0.05,0.06,0,0,0,0,1.5,0.07,0.04
2022-08-02 07:20:00,0,0,0.2,0.2,1.55,0.01,0.03,0.06,0.05,0.1,0,0,0,1.5700000000000003,0.08,0.05
2022-08-02 07:30:00,0,0,0.2,0.2,1.54,0.02,0.02,0.05,0.05,0,0.1,0,0,1.5599999999999952,0.07,0.04
2022-08-02 07:40:00,0,0,0.2,0.1,1.6400000000000001,0.02,0.03,0.05,0.06,0.1,0,0,0,1.6700000000000017,0.08,0.05
2022-08-02 07:50:00,0,0,0.30000000000000004,0.2,1.6400000000000001,0.02,0.02,0.05,0.09,0,0,0,0,1.6700000000000017,0.13,0.04
2022-08-02 08:00:00,0,0.1,0.2,0.1,1.6500000000000001,0.02,0.03,0.06,0.1,0.1,0,0,0,1.6600000000000037,0.15,0.05
2022-08-02 08:10:00,0,0.1,0.1,0.1,1.54,0.02,0.03,0.05,0.09,0,0,0,0,1.5700000000000003,0.12,0.04
2022-08-02 08:20:00,0,0.1,0.2,0.1,1.54,0.01,0.02,0.05,0.09,0.1,0,0,0,1.5700000000000003,0.08,0.04
2022-08-02 08:30:00,0,0.1,0.30000000000000004,0.1,1.6500000000000001,0.02,0.02,0.05,0.08,0,0,0,0,1.6600000000000037,0.07,0.05
2022-08-02 08:40:00,0,0,0.2,0.1,1.54,0.02,0.03,0.05,0.1,0.1,0,0,0,1.5700000000000003,0.08,0.04
2022-08-02 08:50:00,0,0.1,0.2,0.2,1.4400000000000002,0.02,0.02,0.06,0.09,0,0,0,0,1.4699999999999989,0.07,0.04
2022-08-02 09:00:00,0,0.1,0.2,0.2,1.55,0.02,0.03,0.05,0.08,0.1,0,0,0,1.5599999999999952,0.07,0.05
2022-08-02 09:10:00,0,0,0.30000000000000004,0.1,1.7400000000000002,0.02,0.02,0.05,0.09,0,0.1,0,0,1.7600000000000051,0.07,0.04
2022-08-02 09:20:00,0,0.1,0.30000000000000004,0.1,1.54,0.01,0.03,0.05,0.1,0.1,0,0.04,0,1.5499999999999972,0.08,0.04
2022-08-02 09:30:00,0,0.1,0.2,0.1,1.54,0.02,0.02,0.06,0.09,0,0,0.08,0,1.5700000000000003,0.07,0.05
2022-08-02 09:40:00,0,0,0.1,0.2,1.6500000000000001,0.02,0.03,0.05,0.09,0.1,0,0.08,0,1.6600000000000037,0.08,0.04
2022-08-02 09:50:00,0,0.1,0.2,0.1,1.7400000000000002,0.02,0.02,0.05,0.09,0.1,0,0.09,0,1.75,0.07,0.05
2022-08-02 10:00:00,0,0.1,0.1,0.2,1.54,0.02,0.03,0.06,0.09,0,0,0.07,0,1.5600000000000023,0.08,0.04
2022-08-02 10:10:00,0,0.1,0.2,0.2,1.6500000000000001,0.02,0.03,0.05,0.09,0.1,0,0.07,0,1.6600000000000037,0.07,0.05
2022-08-02 10:20:00,0,0,0.1,0.2,1.7400000000000002,0.02,0.02,0.05,0.1,0.1,0,0.07,0,1.7100000000000009,0.08,0.04
2022-08-02 10:30:00,0,0.1,0.2,0.2,1.54,0.01,0.03,0.06,0.09,0,0,0.06,0,1.5,0.07,0.05
2022-08-02 10:40:00,0,0.1,0.1,0.2,1.7500000000000002,0.02,0.02,0.05,0.09,0.1,0,0.05,0,1.7000000000000028,0.07,0.04
2022-08-02 10:50:00,0,0,0.1,0.1,1.6400000000000001,0.02,0.03,0.05,0.09,0.1,0,0.03,0,1.6000000000000014,0.08,0.05
2022-08-02 11:00:00,0,0.1,0.2,0.2,1.84,0.02,0.02,0.06,0.09,0,0,0,0,1.7999999999999972,0.07,0.04
2022-08-02 11:10:00,0,0.2,0.2,0,1.4500000000000002,0.02,0.03,0.05,0.09,0.1,0,0,0,1.4099999999999966,0.08,0.04
2022-08-02 11:20:00,0,0,0.2,0.1,1.7400000000000002,0.02,0.02,0.05,0.09,0.1,0,0,0,1.7000000000000028,0.07,0.05
2022-08-02 11:30:00,0,0.1,0.2,0.2,1.4400000000000002,0.02,0.03,0.06,0.09,0,0,0,0,1.4100000000000037,0.08,0.04
2022-08-02 11:40:00,0,0,0.2,0.1,1.85,0.01,0.02,0.05,0.09,0.1,0,0,0,1.8199999999999932,0.07,0.05
2022-08-02 11:50:00,0,0.1,0.30000000000000004,0.1,1.7400000000000002,0.02,0.03,0.05,0.1,0,0,0,0,1.7100000000000009,0.07,0.04
2022-08-02 12:00:00,0,0,0.1,0.1,1.54,0.02,0.02,0.05,0.09,0.1,0,0,0,1.5200000000000031,0.08,0.04
2022-08-02 12:10:00,0,0,0.30000000000000004,0.2,1.7500000000000002,0.02,0.03,0.06,0.09,0.1,0,0,0,1.720000000000006,0.07,0.05
2022-08-02 12:20:00,0,0.1,0.2,0.2,1.4400000000000002,0.02,0.02,0.05,0.09,0,0,0,0,1.4199999999999946,0.08,0.04
2022-08-02 12:30:00,0,0,0.2,0.2,1.6400000000000001,0.02,0.03,0.05,0.1,0.1,0,0,0,1.6200000000000045,0.07,0.04
2022-08-02 12:40:00,0,0,0.2,0.1,1.6500000000000001,0.02,0.03,0.06,0.09,0.1,0,0,0,1.6099999999999994,0.08,0.04
2022-08-02 12:50:00,0,0.2,0.2,0.1,1.7400000000000002,0.01,0.02,0.05,0.07,0.1,0,0,0,1.730000000000004,0.07,0.03
2022-08-02 13:00:00,0,0.1,0.2,0.1,1.7400000000000002,0.02,0.03,0.05,0.05,0,0,0,0,1.75,0.08,0.04
2022-08-02 13:10:00,0,0.1,0.30000000000000004,0.1,1.7500000000000002,0.02,0.02,0.05,0.06,0.1,0,0,0,1.750000000000007,0.07,0.03
2022-08-02 13:20:00,0,0.2,0.1,0.1,1.6400000000000001,0.02,0.03,0.06,0.05,0.1,0,0,0,1.6499999999999986,0.07,0.04
2022-08-02 13:30:00,0,0.1,0.2,0,1.6400000000000001,0.02,0.02,0.05,0.09,0.1,0,0,0,1.6400000000000006,0.08,0.04
2022-08-02 13:40:00,0,0.2,0.30000000000000004,0,1.7500000000000002,0.02,0.03,0.05,0.08,0,0,0.02,0.02,1.75,0.07,0.03
2022-08-02 13:50:00,0,0,0.2,0,1.7400000000000002,0.01,0.02,0.05,0.09,0.1,0.30000000000000004,0.08,0.14,1.7700000000000031,0.07,0.04
2022-08-02 14:00:00,0,0,0.2,0,1.84,0.02,0.03,0.06,0.1,0.1,0.2,0.06,0.2,1.8599999999999994,0.07,0.04
2022-08-02 14:10:00,0,0,0.2,0,1.84,0.02,0.02,0.05,0.09,0.1,0.2,0.07,0.08,1.8699999999999974,0.08,0.03
2022-08-02 14:20:00,0,0,0.30000000000000004,0,1.6500000000000001,0.02,0.02,0.05,0.08,0.1,0.1,0.07,0,1.6600000000000037,0.09,0.04
2022-08-02 14:30:00,0,0,0.1,0,1.7400000000000002,0.02,0.03,0.05,0.09,0,0.2,0.04,0,1.7700000000000031,0.16,0.03
2022-08-02 14:40:00,0,0,0.2,0,2.04,0.02,0.02,0.05,0.1,0.1,0.1,0.03,0.03,2.0700000000000003,0.17,0.04
2022-08-02 14:50:00,0,0,0.1,0,1.85,0.01,0.03,0.05,0.08,0.1,0,0.04,0,1.8699999999999903,0.17,0.04
2022-08-02 15:00:00,0,0,0.1,0,1.84,0.02,0.02,0.06,0.09,0,0.1,0.02,0,1.8699999999999974,0.17,0.03
2022-08-02 15:10:00,0.08,0,0.1,0,1.6400000000000001,0.02,0.03,0.05,0.09,0.1,0.1,0.03,0,1.6700000000000017,0.12,0.04
2022-08-02 15:20:00,0.04,0,0.2,0,1.9400000000000002,0.02,0.02,0.05,0.09,0.1,0,0.02,0,1.9600000000000009,0.11,0.03
2022-08-02 15:30:00,0,0,0.2,0,1.55,0.02,0.03,0.05,0.09,0,0.1,0.03,0,1.5700000000000003,0.08,0.04
2022-08-02 15:40:00,0,0,0.2,0,1.84,0.01,0.02,0.05,0.09,0.1,0,0.02,0,1.8699999999999974,0.08,0.04
2022-08-02 15:50:00,0,0,0.2,0,1.6400000000000001,0.02,0.03,0.06,0.09,0.1,0.1,0.02,0,1.6499999999999986,0.07,0.03
2022-08-02 16:00:00,0,0,0.2,0,1.7500000000000002,0.02,0.02,0.05,0.09,0,0,0.02,0,1.730000000000004,0.07,0.04
2022-08-02 16:10:00,0,0,0.30000000000000004,0,1.7400000000000002,0.02,0.03,0.05,0.09,0.1,0.1,0.02,0,1.7100000000000009,0.08,0.03
2022-08-02 16:20:00,0,0,0.1,0,1.7400000000000002,0.02,0.02,0.05,0.09,0.1,0,0.03,0,1.720000000000006,0.07,0.04
2022-08-02 16:30:00,0,0,0.2,0,1.55,0.02,0.03,0.05,0.09,0,0.1,0.02,0,1.5200000000000031,0.07,0.04
2022-08-02 16:40:00,0,0,0.2,0,1.84,0.01,0.02,0.06,0.09,0.1,0,0.01,0,1.8199999999999932,0.07,0.03
2022-08-02 16:50:00,0,0,0.30000000000000004,0,1.54,0.02,0.03,0.05,0.09,0.1,0.1,0,0,1.509999999999998,0.08,0.04
2022-08-02 17:00:00,0,0,0.2,0,1.7500000000000002,0.02,0.02,0.05,0.09,0,0,0,0,1.720000000000006,0.07,0.04
2022-08-02 17:10:00,0,0.1,0.2,0,1.7400000000000002,0.02,0.03,0.05,0.09,0.1,0.1,0,0,1.720000000000006,0.08,0.03
2022-08-02 17:20:00,0,0.1,0.1,0,1.6400000000000001,0.02,0.02,0.06,0.09,0,0,0,0,1.6199999999999974,0.07,0.04
2022-08-02 17:30:00,0,0.1,0.2,0,1.6400000000000001,0.02,0.03,0.05,0.1,0.1,0,0,0,1.6200000000000045,0.07,0.03